Regional Weather Roundup
Issued by NWS

Home | Current Version | Previous Version | Text Only | Print | Product List | Glossary On
Versions: 1 2 3 4 5 6 7 8 9 10 11 12 13 14 15 16 17 18 19 20 21 22 23 24 25 26 27 28 29 30 31 32 33 34 35 36 37 38 39 40 41 42 43 44 45 46 47 48 49 50
000
ASUS44 KOUN 171310
RWROK

WEATHER ROUNDUP FOR OKLAHOMA
NATIONAL WEATHER SERVICE NORMAN OK
800 AM CDT WED SEP 17 2014

NOTE: "FAIR" INDICATES FEW OR NO CLOUDS BELOW 12,000 FEET WITH NO
      SIGNIFICANT WEATHER AND/OR OBSTRUCTIONS TO VISIBILITY.

OKZ001>007-009>012-014-015-017-171400-
NORTHWEST OKLAHOMA AND THE PANHANDLE

CITY           SKY/WX    TMP DP  RH WIND       PRES   REMARKS
GAGE           PTCLDY    66  63  90 SW7       29.97S
ENID/WOODRING  PTCLDY    68  68 100 S5        29.92F FOG
$$

OKZ016-021>023-033>039-044-045-171400-
SOUTHWEST OKLAHOMA

CITY           SKY/WX    TMP DP  RH WIND       PRES   REMARKS
LAWTON/REGL    MOCLDY    70  67  90 CALM      29.98R FOG
LAWTON/FT SILL MOCLDY    71  68  92 CALM      29.96S
FREDERICK      CLOUDY    71  68  90 SW3       29.95S
CLINTON        MOCLDY    70  66  87 SW9       30.00S
HOBART         MOCLDY    68  66  93 SW8       29.99R FOG
ALTUS AFB      CLOUDY    73  69  88 W3        29.99R
$$

OKZ018>020-024>031-171400-
CENTRAL OKLAHOMA

CITY           SKY/WX    TMP DP  RH WIND       PRES   REMARKS
OKLAHOMA CITY  MOCLDY    70  68  93 S6        29.96S FOG
OKC/WILEY POST MOCLDY    73  68  84 S10       29.95S HAZE
OKC/TINKER AFB MOCLDY    70  68  94 S10       29.96S
STILLWATER     CLEAR     70  68  93 S3        29.93S FOG
GUTHRIE        PTCLDY    73  69  87 S6        29.94S
$$

OKZ008-013-054>072-171400-
NORTHEAST OKLAHOMA

CITY           SKY/WX    TMP DP  RH WIND       PRES   REMARKS
TULSA          PTCLDY    71  69  93 S7        29.93R FOG
TULSA/JONES    PTCLDY    68  68 100 CALM      29.95R FOG
PONCA CITY     CLEAR     70  67  90 S3        29.93R FOG
BARTLESVILLE   CLEAR     70  70 100 CALM      29.94R FOG
MUSKOGEE       CLOUDY    69  68  96 S8        29.97S FOG
$$

OKZ032-040>043-046>053-073>077-171400-
SOUTH CENTRAL/SOUTHEAST OKLAHOMA

CITY           SKY/WX    TMP DP  RH WIND       PRES   REMARKS
ARDMORE/DWNTWN MOCLDY    70  68  94 CALM      29.98R FOG
MCALESTER      CLEAR     71  69  93 CALM      29.97S FOG
$$



USA.gov is the U.S. government's official web portal to all federal, state and local government web resources and services.